virtualACA

Welcome To Calgary International Airport CYYC

Hub Roster

Pilot Domicile Rank
Ethan Title - ACA1641CanadaChief Pilot
Friedrich Haselgruber - ACA1760GermanyChief Pilot
Graham Dawson - ACA2317CanadaChief Pilot
Roger Godden - ACA2339CanadaChief Pilot
John Croxford - ACA2492United KingdomChief Pilot
Hamir Hamir - ACA2906CanadaFirst Officer
Jake Moerland - ACA3058CanadaSenior Officer
Iain Chilvers - ACA3155United KingdomNew Hire

Current Vatsim Weather


CYYC 200400Z 15007KT 5SM FU BKN120 BKN180 16/04 A3026 RMK FU3AC3AS1 SLP260 DENSITY ALT 4200FT
Calgary International Airport